Погода в Фукуи

Япония     36°02′47″N   136°09′10″E
темп.,
°C
ветер,
м/с
пор.,
м/с
влажн.,
%
обл.,
%
осадки,
мм/ч
давл.,
гПа
погр.,
м
18 мая, вт
вт1800:00+17юз14100100 1.9 1009276
03:00+16юз1199100 2.1 101084
06:00+16зюз1199100 0.1 101187
09:00+20ююз128241 0.2 1011611
12:00+22зсз3272100 0.1 1011787
15:00+21сз3373100 0.1 1011592
18:00+16ссз1198100 0.9 101152
21:00+16ю0099100 2.6 101243
19 мая, ср
ср1900:00+16зсз1199100 0.1 101235
03:00+16сз119999 0.1 101128
06:00+16з1199100 0.1 101368
09:00+17зсз1297100 0.3 1013234
12:00+18зюз1286100 0.1 1014575
15:00+20ююз117696 0.1 1013692
18:00+18зсз23877 0.1 1014132
21:00+14вюв1197100 0.1 101610
20 мая, чт
чт2000:00+13юв0096100 0.0 101510
03:00+13вюв1194100 0.0 101516
06:00+13в1185100 0.0 101637
09:00+19св1155100 0.0 1015186
12:00+25з2333100 0.0 10141001
15:00+22зюз1263100 0.0 1014262
18:00+16юв2291100 0.3 101348
21:00+15вюв1495100 3.8 1013222
21 мая, пт
пт2100:00+15юв3997100 4.5 1010321
03:00+16вюв3998100 7.1 1009269
06:00+16вюв3898100 2.5 1007204
09:00+17юв41397100 7.0 1006480
12:00+19ююв51594100 5.4 1006958
15:00+20ю41394100 12.4 1004995
18:00+19ю41296100 6.3 1004545
21:00+18з1199100 13.0 100587
22 мая, сб
сб2200:00+17з23100100 13.9 1005228
03:00+16ю12100100 26.6 100498
06:00+16ююз1199100 3.1 100659
09:00+15зсз1298100 3.7 1007189
12:00+15з1197100 0.3 1007175
15:00+15з1295100 0.6 1006173
18:00+14юз1297100 0.4 100761
21:00+13ююз119614 1.1 100813